Location: Ffald-y-Brenin
(52.0833°N, 4.0000°W)
Time: 00:34:48
(UTC+00:00)

COSMOS 2455 - Pass Details

Date: 18 February 2020
Orbit: 901 x 909 km, 67.1° (Epoch: 09 April)

Event Time Altitude Azimuth Distance (km) Brightness Sun altitude
Exits shadow 06:36:57 - 321° (NW) 3,525 5.5 -8.2°
Reaches altitude 10° 06:39:31 10° 326° (NNW) 2,600 4.8 -7.8°
Maximum altitude 06:45:22 49° 42° (NE) 1,159 3.7 -6.9°
Drops below altitude 10° 06:51:12 10° 117° (ESE) 2,592 6.8 -6.1°
Sets 06:53:47 0° 122° (ESE) 3,531 7.5 -5.7°
